Regional Weather Roundup
Issued by NWS Charleston, SC

Current Version | Previous Version | Graphics & Text | Print | Product List | Glossary On
Versions: 1 2 3 4 5 6 7 8 9 10 11 12 13 14 15 16 17 18 19 20 21 22 23 24 25 26 27 28 29 30 31 32 33 34 35 36 37 38 39 40 41 42 43 44 45 46 47 48 49 50
000
ASUS42 KCHS 242228
RWRCHS

REGIONAL WEATHER ROUNDUP
NATIONAL WEATHER SERVICE CHARLESTON SC
600 PM EDT TUE MAY 24 2016

NOTE: "FAIR" INDICATES FEW OR NO CLOUDS BELOW 12,000 FEET WITH NO
SIGNIFICANT WEATHER AND/OR OBSTRUCTIONS TO VISIBILITY.

NOT ALL STATIONS ARE QUALITY CONTROLLED. USE DATA WITH CAUTION...
ESPECIALLY DEWPOINT OBSERVATIONS.

SCZ027-030-031-034>040-042>050-242300-
...SOUTHEAST SOUTH CAROLINA...

CITY           SKY/WX    TMP DP  RH WIND       PRES   REMARKS
N CHARLESTON   MOSUNNY   80  59  48 S14       30.12S
WATERFRONT PRK   N/A     76  63  63 S12       30.10F
MOUNT PLEASANT FAIR      79  61  53 S9        30.13S
JOHNS ISLAND   FAIR      77  63  61 S10       30.13S
PINOPOLIS        N/A     86  57  37 VRB3      30.03F
MONCKS CORNER  FAIR      79  54  41 S7        30.11S
SUMMERVILLE    FAIR      84  59  42 S3        30.11F
BEAUFORT MCAS  CLOUDY    82  64  54 S7        30.13S
BEAUFORT ARPT  MOCLDY    77  61  57 SE7       30.13S
HILTON HEAD IS SUNNY     82  64  54 SE9       30.14F
WALTERBORO     PTCLDY    84  61  45 S14       30.11S
ALLENDALE      CLOUDY    84  54  34 S5        30.09S

...SOUTHERN MIDLANDS AND PEE DEE...

CITY           SKY/WX    TMP DP  RH WIND       PRES   REMARKS
GEORGETOWN     FAIR      77  54  44 S10       30.14S
KINGSTREE      FAIR      82  45  26 W3        30.10F
ORANGEBURG     PTSUNNY   84  56  38 VRB7      30.10F
BARNWELL       FAIR      88  57  35 NW6       30.10S
AIKEN          FAIR      82  46  28 SW8       30.13S
MANNING        FAIR      81  55  41 S3        30.10F
COLUMBIA       MOSUNNY   86  53  32 VRB6      30.08F
SUMTER         SUNNY     83  54  36 W7        30.08S
FLORENCE       SUNNY     83  52  34 SW9       30.10F
MYRTLE BEACH   MOSUNNY   77  54  44 S15       30.14F
N MYRTLE BEACH SUNNY     75  57  53 S13       30.12F

$$

GAZ063-065-086>088-099>101-113>116-118-119-134>141-150-242300-
...SOUTHEAST GEORGIA...

CITY           SKY/WX    TMP DP  RH WIND       PRES   REMARKS
SAVANNAH ARPT  PTSUNNY   82  64  54 S12       30.12S
HUNTER AAF     MOSUNNY   79  67  66 SE8       30.10F
FORT STEWART   MOSUNNY   82  65  56 SE8       30.09S
STATESBORO     SUNNY     84  55  36 CALM      30.10S
SYLVANIA       CLEAR     87  55  33 S3        30.11S
CLAXTON        FAIR      86  56  36 SW3       30.10S

...CSRA...CENTRAL AND FAR SOUTHEAST GEORGIA...

CITY           SKY/WX    TMP DP  RH WIND       PRES   REMARKS
THOMSON        MOSUNNY   86  56  35 S3        30.15S
AUGUSTA-BUSH   SUNNY     84  51  31 CALM      30.08F
AUGUSTA-DANIEL SUNNY     85  51  31 W6        30.10F
SWAINSBORO     FAIR      86  50  28 W6        30.11S
VIDALIA        SUNNY     84  52  32 W3        30.11S
EASTMAN        FAIR      85  51  30 SW3       30.13S
HAZLEHURST     FAIR      86  49  27 CALM      30.10R
ALMA           SUNNY     86  50  28 VRB3      30.10F
WAYCROSS       MOSUNNY   86  55  34 S3        30.10S
JESUP          FAIR      79  61  53 S7        30.11S
BAXLEY         FAIR      88  46  23 CALM      30.10S
BRUNSWICK      SUNNY     86  66  51 SE10      30.13S
SAINT SIMONS   MOSUNNY   80  67  64 SE13      30.12F

$$

SCZ027-028-034-036>038-045-046-048>050-GAZ119-141-242300-
...LAKE AND SUPPLEMENTAL COASTAL OBSERVATIONS...

STATION/POSITION TIME  TEMP    WIND        PRES    WAVE   SWELL
                       AIR SEA DIR/SP/G            HT/PER HT/PER/DIR
                 (UTC) (F)     (DEG/KT/KT) (MB)    (FT/S) (FT/S/D)
WINYAH BAY       2100   75     160/ 12     1020.0
LAKE MURRAY      2100   83     180/  5/  7 1018.6F
ACE BASIN NERRS  2100   78     160/  1     1020.0S
FORT PULASKI     2200   77                   N/A
SAPELO ISLAND    2200   82     140/  9     1020.0S

$$

ANZ835-935-AMZ111-154-330-350-352-354-370-450-454-472-242300-
...C-MAN AND BUOY OBSERVATIONS...

STATION/POSITION TIME  TEMP    WIND        PRES    WAVE   SWELL
                       AIR SEA DIR/SP/G            HT/PER HT/PER/DIR
                 (UTC) (F)     (DEG/KT/KT) (MB)    (FT/S) (FT/S/D)
BUOY 41004       2150   75 76  130/  8/ 10 1020.3    2/ 8   2/ 8
BUOY 41008       2150   76 77  130/ 10/ 12 1020.4F   2/ 9   2/100/ 9
FOLLY BEACH CMAN 2200   74     170/ 12/ 13 1020.6F
CAPERS NEARSHORE 2208   74 75  170/ 12/ 16 1020.0S
FRIPP NEARSHORE  2208   75 76  160/ 12/ 16 1019.7F


STATION/POSITION TIME  TEMP    WIND        PRES    WAVE   SWELL
                       AIR SEA DIR/SP/G            HT/PER HT/PER/DIR
                 (UTC) (F)     (DEG/KT/KT) (MB)    (FT/S) (FT/S/D)
5E ST. MARYS GA  2151      79                N/A     2/ 9
FRYING PAN BUOY  2200   74 77  200/ 12/ 14 1020.4F
BUOY 41025       2150   73 79  230/ 16/ 17 1018.5F   3/ 9   3/ 60/ 9
CAPE LOOKOUT NC  2200   72     220/ 12/ 17 1019.1R
BUOY 41002       2150   73 78  330/  6/ 10 1020.6R   5/ 9   5/ 30/ 9
BUOY 41010       2120   78 79   70/ 10/ 10 1020.8F
ST AUGUSTINE FL  2200   78 81  130/ 12/ 13 1021.1F


$$




USA.gov is the U.S. government's official web portal to all federal, state and local government web resources and services.